Whidbey Island, WA
on Sunday, November 11, 2012

Sunday
Previous Day Next Day
Daily Summary
 ActualAverageRecord
Temperature
Mean Temperature °F °F  
Max Temperature 46°F 50°F 60°F (1999)
Min Temperature 33°F 38°F 28°F (2000)
Degree Days
Heating Degree Days 26    
Moisture
Dew Point 34°F   
Average Humidity 75    
Maximum Humidity 89    
Minimum Humidity 51    
Precipitation
Precipitation 0.23 in in in ()
Wind
Wind Speed 13 mph   
Max Wind Speed 25 mph   
Max Gust Speed 33 mph   
Visibility 10 miles   
Events Rain   
Averages and records for this station are not official NWS values.
Key: T is trace of precipitation, MM is missing value
Source: NWS Daily Summary
Seasonal Weather Averages
Time(PST)TemperatureDew PointHumidity Pressure Visibility Wind DirectionWind SpeedGust SpeedPrecipitationEvents Conditions
12:56 AM 33.1°F 28.0°F 82% 30.25 in 10.0 miles ESE 5.8 mph - N/A   Mostly Cloudy
1:56 AM 36.0°F 30.0°F 79% 30.25 in 10.0 miles East 9.2 mph - N/A   Overcast
2:56 AM 35.1°F 28.9°F 78% 30.24 in 10.0 miles East 8.1 mph - N/A   Overcast
3:56 AM 37.0°F 28.0°F 70% 30.23 in 10.0 miles East 10.4 mph - N/A   Overcast
4:56 AM 37.0°F 27.0°F 67% 30.23 in 10.0 miles East 8.1 mph - N/A   Overcast
5:56 AM 37.9°F 28.0°F 68% 30.22 in 10.0 miles East 13.8 mph - N/A   Overcast
6:56 AM 37.9°F 27.0°F 65% 30.22 in 10.0 miles East 12.7 mph - N/A   Overcast
7:56 AM 39.9°F 26.1°F 58% 30.22 in 10.0 miles ESE 10.4 mph - N/A   Overcast
8:56 AM 41.0°F 24.1°F 51% 30.22 in 10.0 miles East 13.8 mph - N/A   Overcast
9:56 AM 43.0°F 27.0°F 53% 30.22 in 10.0 miles East 15.0 mph - N/A   Overcast
10:37 AM 44.6°F 30.2°F 57% 30.20 in 10.0 miles ESE 16.1 mph 24.2 mph 0.00 in Rain Light Rain
10:56 AM 44.1°F 30.0°F 58% 30.22 in 10.0 miles ESE 17.3 mph 24.2 mph 0.00 in Rain Light Rain
11:56 AM 43.0°F 33.1°F 68% 30.20 in 10.0 miles East 17.3 mph - 0.00 in Rain Light Rain
12:56 PM 43.0°F 36.0°F 76% 30.18 in 10.0 miles East 18.4 mph 26.5 mph 0.00 in Rain Light Rain
1:43 PM 42.8°F 35.6°F 76% 30.14 in 10.0 miles East 18.4 mph 26.5 mph 0.00 in   Overcast
1:56 PM 43.0°F 37.0°F 80% 30.15 in 10.0 miles ESE 18.4 mph 25.3 mph 0.00 in   Overcast
2:56 PM 45.0°F 36.0°F 71% 30.13 in 10.0 miles ESE 20.7 mph 27.6 mph N/A   Overcast
3:56 PM 45.0°F 36.0°F 71% 30.12 in 10.0 miles ESE 16.1 mph - N/A   Overcast
4:08 PM 44.6°F 35.6°F 71% 30.10 in 10.0 miles ESE 17.3 mph - 0.00 in Rain Light Rain
4:56 PM 44.1°F 37.9°F 79% 30.10 in 7.0 miles ESE 20.7 mph 28.8 mph 0.01 in Rain Light Rain
5:56 PM 43.0°F 39.0°F 86% 30.09 in 7.0 miles SE 20.7 mph 28.8 mph 0.09 in Rain Rain
6:56 PM 43.0°F 39.9°F 89% 30.06 in 8.0 miles SE 18.4 mph 29.9 mph 0.10 in Rain Light Rain
7:30 PM 42.8°F 39.2°F 87% 30.04 in 10.0 miles ESE 24.2 mph 32.2 mph 0.03 in Rain Light Rain
7:42 PM 42.8°F 39.2°F 87% 30.03 in 10.0 miles SE 20.7 mph 31.1 mph 0.03 in   Overcast
7:56 PM 43.0°F 39.9°F 89% 30.04 in 10.0 miles SE 19.6 mph - 0.03 in   Overcast
8:56 PM 44.1°F 39.9°F 85% 30.04 in 10.0 miles SE 25.3 mph 33.4 mph N/A   Overcast
9:56 PM 45.0°F 41.0°F 86% 30.06 in 10.0 miles SE 16.1 mph 26.5 mph N/A   Overcast
10:21 PM 44.6°F 41.0°F 87% 30.04 in 10.0 miles SE 20.7 mph 27.6 mph N/A   Overcast
10:56 PM 46.0°F 41.0°F 83% 30.05 in 10.0 miles SE 18.4 mph 33.4 mph N/A   Overcast
11:56 PM 46.0°F 41.0°F 83% 30.05 in 10.0 miles SE 20.7 mph 27.6 mph N/A   Overcast
Moon Phase
Nov. 11 Nov. 13 Nov. 20 Nov. 28 Dec. 06
Sunrise:07:12 AM (PST) Moon Rise:04:23 AM (PST)11/11
Sunset:04:35 PM (PST) Moon Set:03:10 PM (PST)11/11

Copyright © 2014 The Weather Underground, Inc.